Location: Unnamed
(51.5169°N, 0.1311°W)
Time: 20:52:38
(UTC+01:00)

Tiros 1 - Pass Details

Date: 14 August 2024
Orbit: 623 x 655 km, 48.4° (Epoch: 16 September)

Event Time Altitude Azimuth Distance (km) Brightness Sun altitude
Rises 09:23:31 0° 277° (W) 2,982 10.0 32.3°
Reaches altitude 10° 09:25:58 10° 270° (W) 2,068 9.4 32.6°
Maximum altitude 09:30:25 40° 201° (SSW) 958 8.4 33.3°
Drops below altitude 10° 09:34:51 10° 132° (SE) 2,052 10.9 33.9°
Sets 09:37:16 0° 125° (SE) 2,956 11.5 34.3°
